Regional Weather Roundup
Issued by NWS

Home | Current Version | Previous Version | Text Only | Print | Product List | Glossary On
Versions: 1 2 3 4 5 6 7 8 9 10 11 12 13 14 15 16 17 18 19 20 21 22 23 24 25 26 27 28 29 30 31 32 33 34 35 36 37 38 39 40 41 42 43 44 45 46 47 48 49 50
000
ASUS42 KFFC 121503
RWRGA
WEATHER ROUNDUP FOR GEORGIA
NATIONAL WEATHER SERVICE PEACHTREE CITY GA
1000 AM EST FRI FEB 12 2016

NOTE: "FAIR" INDICATES FEW OR NO CLOUDS BELOW 12,000 FEET WITH NO
SIGNIFICANT WEATHER AND/OR OBSTRUCTIONS TO VISIBILITY.

* = USE WITH CAUTION. THE STATIONS MARKED WITH AN ASTERISK MAY NOT
REPORT WEATHER SUCH AS PRECIPITATION, FOG, OR THUNDER AND ARE NOT
QUALITY CONTROLLED BY NWS.

THE REMARK "TC" DENOTES TEMPERATURE READING IN DEGREES CELSIUS.

GAZ001>058-121600-
NORTH GEORGIA

CITY           SKY/WX    TMP DP  RH WIND       PRES   REMARKS
ATLANTA        PTSUNNY   43  27  53 E6        30.13S
ATHENS         CLOUDY    38  24  57 NE6       30.16R WCI  33
CHAMBLEE       MOSUNNY   42  25  50 VRB3      30.13F
PEACHTREE CITY SUNNY     44  29  55 NE5       30.14S
ROME           MOSUNNY   42  27  55 NE3       30.15R
WEST ATLANTA   MOSUNNY   42  26  53 NE3       30.13F
GAINESVILLE    SUNNY     40  21  46 E7        30.13F
CARTERSVILLE   SUNNY     39  27  62 CALM      30.16F


CITY           SKY/WX    TMP DP  RH WIND       PRES   REMARKS
DALTON*        CLOUDY    36  30  80 CALM      30.15F
LAWRENCEVILLE* SUNNY     39  23  52 E7        30.12F WCI  34
KENNESAW*      MOSUNNY   39  27  60 CALM      30.14F
BLAIRSVILLE*   LGT RAIN  33  25  73 CALM      30.13S
$$

GAZ059>098-102>109-121600-
CENTRAL GEORGIA

CITY           SKY/WX    TMP DP  RH WIND       PRES   REMARKS
AUGUSTA-BUSH   PTSUNNY   46  35  65 N6        30.14F
AUGUSTA-DANIEL CLOUDY    45  32  60 N7        30.15S
COLUMBUS       CLOUDY    49  40  71 W8        30.14R
MACON          CLOUDY    45  35  68 CALM      30.13F


CITY           SKY/WX    TMP DP  RH WIND       PRES   REMARKS
LAGRANGE*      MOSUNNY   49  35  59 NE3       30.14S
SYLVANIA*      CLOUDY    44  44  99 CALM      30.13F FOG
MILLEDGEVILLE* MOSUNNY   45  32  61 CALM      30.14F
$$

GAZ099>101-110>166-121600-
SOUTH GEORGIA

CITY           SKY/WX    TMP DP  RH WIND       PRES   REMARKS
SAVANNAH       CLOUDY    59  53  80 SW12      30.13F
VALDOSTA       PTSUNNY   64  56  75 VRB6      30.18S
ALMA           CLOUDY    60  55  83 SW10      30.14S
ST SIMONS      MOSUNNY   61  55  81 SW12      30.16F
ALBANY         CLOUDY    60  54  80 SW12      30.17S
BRUNSWICK      CLOUDY    63  55  77 SW14G21   30.16F


CITY           SKY/WX    TMP DP  RH WIND       PRES   REMARKS
BAINBRIDGE*    MOSUNNY   63  54  72 W17G23    30.18S
MOULTRIE*      CLOUDY    59  55  88 W14       30.18S
VIDALIA*       CLOUDY    59  54  82 SW6       30.12S
WAYCROSS*      CLOUDY    64  59  85 W13G21    30.15F
DOUGLAS*       CLOUDY    61  54  77 W9        30.16S
$$



USA.gov is the U.S. government's official web portal to all federal, state and local government web resources and services.